Location: Krasnoyarskiy
(51.1133°N, 71.6497°E)
Time: 23:10:18
(UTC+00:00)

CZ-2D R/B - Pass Details

Date: 27 September 2022
Orbit: 551 x 632 km, 98.0° (Epoch: 03 December)

Event Time Altitude Azimuth Distance (km) Brightness Sun altitude
Rises 00:22:47 0° 6° (N) 2,743 7.1 -7.7°
Maximum altitude 00:28:35 30° 294° (WNW) 1,005 4.2 -6.8°
Drops below altitude 10° 00:32:03 10° 233° (SW) 1,835 5.5 -6.3°
Sets 00:34:21 0° 223° (SW) 2,731 6.4 -5.9°
